Hourly Data Report for November 03, 2020

MUSKOKA
ONTARIO
Current Station Operator: NAVCAN

44°58'29.000" N
79°18'12.000" W
281.90 m
6115529
71532
YQA

Download Data

Hourly Data (November 2020)
Hourly Data Report for November 3, 2020
TIME
LST
Temp Definition
°C
Dew Point Definition
°C
Rel Hum Definition
%
Precip. Amount Definition
mm

Wind Dir Definition
10's deg

Wind Spd Definition
km/h
Visibility Definition
km
Stn Press Definition
kPa
Hmdx Definition


Wind Chill Definition


Weather Definition


00:00 5.6 -0.9 63 LegendMM 30 30 16.1 97.15     LegendNANA
01:00 2.0 -0.9 81 LegendMM 32 28 16.1 97.30     LegendNANA
02:00 2.1 -1.4 77 LegendMM 31 32 16.1 97.44     LegendNANA
03:00 1.1 -4.4 67 LegendMM 32 22 16.1 97.54     LegendNANA
04:00 0.2 -5.8 64 LegendMM 33 32 16.1 97.68     LegendNANA
05:00 -0.7 -7.3 61 LegendMM 33 26 16.1 97.80   -7 LegendNANA
06:00 -1.3 -6.7 67 LegendMM 33 26 16.1 97.96   -8 LegendNANA
07:00 -2.4 -8.1 65 LegendMM 35 15 16.1 98.07   -7 LegendNANA
08:00 -2.9 -9.4 61 LegendMM 34 21 16.1 98.24   -9 LegendNANA
09:00 -2.7 -9.2 61 LegendMM 36 13 16.1 98.34   -7 LegendNANA
10:00 -2.3 -8.8 61 LegendMM 35 9 16.1 98.47   -6 LegendNANA
11:00 -2.0 -9.2 58 LegendMM 2 8 16.1 98.53   -5 LegendNANA
12:00 -1.2 -8.7 57 LegendMM   0 16.1 98.58     LegendNANA
13:00 -0.7 -8.3 57 LegendMM LegendMM 4 16.1 98.58   -2 LegendNANA
14:00 -0.3 -8.4 55 LegendMM   0 16.1 98.56     LegendNANA
15:00 -0.2 -7.5 58 LegendMM 15 5 16.1 98.55   -2 LegendNANA
16:00 0.0 -6.8 60 LegendMM 14 9 16.1 98.56   -3 LegendNANA
17:00 -0.2 -7.1 60 LegendMM 13 8 16.1 98.55   -3 LegendNANA
18:00 -0.3 -6.7 62 LegendMM 13 8 16.1 98.55   -3 LegendNANA
19:00 -0.5 -6.7 63 LegendMM 13 11 16.1 98.53   -4 LegendNANA
20:00 -0.5 -6.5 64 LegendMM 14 15 16.1 98.52   -5 LegendNANA
21:00 -0.5 -6.5 64 LegendMM 13 13 16.1 98.56   -5 LegendNANA
22:00 -0.8 -6.1 68 LegendMM 13 13 16.1 98.57   -5 LegendNANA
23:00 -0.8 -5.6 70 LegendMM 14 15 16.1 98.54   -5 LegendNANA

Notes on Data Quality.

Legend

  • E = Estimated
  • M = Missing
  • NA = Not Available*
  • [empty] = Indicates an unobserved value
Date modified: